Retour au catalogue

CZ-6A DEB

ActifSSO
NORAD 56674·DEBRIS·🇨🇳 China

Lancé Nov 11, 2022 depuis Taiyuan Satellite Launch Center

Loading…

Prochains Passages (prochaines 24 heures)

TLE

FraisSource: Space-Track

Époque: Sep 14, 2026, 20:20 UTC

1 56674U 22151AHA 26257.84728478  .00004726  00000-0  91635-3 0  9995
2 56674  98.5127 299.0070 0122557  37.0748 323.8839 14.59019632184683

Suivez CZ-6A DEB en temps réel avec AllMySat

Download on the App Store